Date String (YYYY-MM-DD hh:mm:ss) UTC,Instrument flags,Ambient pressure (hPa),Sample flow (lpm),Bypass flow (lpm),Sample temperature (°C),Ambient temperature (°C),ASC tube jacket temperature (°C),LED temperature (°C),Box temperature (°C),Sample RH (%),Span deviation,Mass concentration (μg/m³),Mass concentration (μg/m³),Mass concentration (μg/m³)
DateTimeUTC,F1_M11,P_M11,Q1_M11,Q2_M11,T1_M11,T2_M11,T3_M11,T4_M11,T5_M11,U1_M11,ZSPAN_M11,X2_M11,X0_M11,X1_M11
2021-11-10 03:00:00,,0822.2,5.00,0.00,28.4,27.5,00.0,37.4,30.2,15.1,-000.5,0015.19,0037.00,0012.17
2021-11-10 03:01:00,,0822.2,5.00,0.00,28.4,27.5,00.0,37.4,30.2,15.1,0000.1,0015.22,0036.12,0012.21
2021-11-10 03:02:00,,0822.2,5.01,0.00,28.4,27.5,00.0,37.4,30.2,15.1,-000.0,0015.23,0037.51,0012.27
2021-11-10 03:03:00,,0822.2,5.00,0.00,28.4,27.5,00.0,37.4,30.2,15.1,-000.1,0015.23,0039.28,0012.31
2021-11-10 03:04:00,,0822.1,4.98,0.00,28.4,27.5,00.0,37.4,30.2,15.1,0000.3,0015.23,0037.98,0012.35
2021-11-10 03:05:00,,0822.1,5.00,0.00,28.4,27.5,00.0,37.4,30.2,15.1,0000.5,0015.32,0038.34,0012.37
2021-11-10 03:06:00,,0822.1,5.00,0.00,28.4,27.4,00.0,37.4,30.2,15.1,-000.0,0015.39,0039.24,0012.38
2021-11-10 03:07:00,,0822.2,4.98,0.00,28.4,27.4,00.0,37.4,30.1,15.2,-000.4,0015.47,0040.78,0012.40
2021-11-10 03:08:00,,0822.1,5.00,0.00,28.4,27.4,00.0,37.4,30.1,15.2,-000.2,0015.52,0042.31,0012.43
2021-11-10 03:09:00,,0822.2,5.01,0.00,28.4,27.4,00.0,37.4,30.1,15.2,-000.0,0015.51,0043.35,0012.48
2021-11-10 03:10:00,,0822.1,5.00,0.00,28.4,27.4,00.0,37.4,30.1,15.2,-000.2,0015.55,0043.58,0012.49
2021-11-10 03:11:00,,0822.1,4.99,0.00,28.3,27.4,00.0,37.4,30.1,15.2,-000.4,0015.56,0044.01,0012.50
2021-11-10 03:12:00,,0822.0,5.00,0.00,28.3,27.4,00.0,37.4,30.1,15.2,-000.6,0015.55,0045.24,0012.52
2021-11-10 03:13:00,,0822.0,4.99,0.00,28.4,27.4,00.0,37.4,30.1,15.2,-000.4,0015.57,0045.10,0012.54
2021-11-10 03:14:00,,0822.1,5.01,0.00,28.3,27.4,00.0,37.4,30.1,15.2,-000.3,0015.59,0045.99,0012.53
2021-11-10 03:15:00,,0822.2,5.00,0.00,28.4,27.5,00.0,37.4,30.1,15.2,-000.6,0015.60,0045.83,0012.52
2021-11-10 03:16:00,,0822.2,5.01,0.00,28.4,27.5,00.0,37.4,30.1,15.2,-000.6,0015.61,0045.56,0012.54
2021-11-10 03:17:00,,0822.2,4.98,0.00,28.3,27.4,00.0,37.4,30.1,15.2,-000.5,0015.58,0044.10,0012.54
2021-11-10 03:18:00,,0822.2,5.02,0.00,28.3,27.4,00.0,37.4,30.0,15.2,-000.3,0015.50,0041.86,0012.49
2021-11-10 03:19:00,,0822.3,5.00,0.00,28.3,27.4,00.0,37.4,30.0,15.2,-000.4,0015.33,0041.12,0012.41
2021-11-10 03:20:00,,0822.3,4.99,0.00,28.3,27.4,00.0,37.3,30.0,15.2,-000.5,0015.35,0040.83,0012.36
2021-11-10 03:21:00,,0822.3,5.01,0.00,28.2,27.3,00.0,37.3,29.9,15.3,-000.5,0015.37,0040.80,0012.34
2021-11-10 03:22:00,,0822.3,5.00,0.00,28.2,27.3,00.0,37.3,29.9,15.3,-000.1,0015.38,0039.46,0012.30
2021-11-10 03:23:00,,0822.3,5.00,0.00,28.2,27.2,00.0,37.3,29.9,15.3,0000.1,0015.38,0038.69,0012.26
2021-11-10 03:24:00,,0822.3,5.00,0.00,28.2,27.2,00.0,37.3,29.8,15.3,-000.5,0015.41,0038.75,0012.24
2021-11-10 03:25:00,,0822.2,5.00,0.00,28.1,27.2,00.0,37.3,29.8,15.3,-000.4,0015.38,0037.08,0012.23
2021-11-10 03:26:00,,0822.2,5.00,0.00,28.1,27.2,00.0,37.3,29.8,15.4,-000.2,0015.33,0036.14,0012.22
2021-11-10 03:27:00,,0822.2,5.01,0.00,28.1,27.2,00.0,37.2,29.8,15.4,-000.1,0015.21,0036.25,0012.17
2021-11-10 03:28:00,,0822.2,4.99,0.00,28.1,27.2,00.0,37.2,29.8,15.4,-000.3,0015.23,0036.88,0012.18
2021-11-10 03:29:00,,0822.3,5.00,0.00,28.1,27.2,00.0,37.2,29.8,15.4,-000.6,0015.28,0038.31,0012.19
2021-11-10 03:30:00,,0822.4,5.01,0.00,28.1,27.2,00.0,37.2,29.8,15.4,-000.3,0015.35,0038.21,0012.21
2021-11-10 03:31:00,,0822.3,5.01,0.00,28.1,27.2,00.0,37.2,29.9,15.3,-000.4,0015.34,0037.37,0012.25
2021-11-10 03:32:00,,0822.3,4.99,0.00,28.1,27.2,00.0,37.2,29.9,15.4,-000.8,0015.29,0036.49,0012.26
2021-11-10 03:33:00,,0822.3,5.01,0.00,28.1,27.2,00.0,37.2,29.8,15.4,-001.0,0015.34,0036.75,0012.27
2021-11-10 03:34:00,,0822.2,4.99,0.00,28.1,27.2,00.0,37.2,29.9,15.4,-001.1,0015.37,0036.58,0012.29
2021-11-10 03:35:00,,0822.2,5.00,0.00,28.1,27.2,00.0,37.2,29.9,15.4,-000.6,0015.26,0035.24,0012.26
2021-11-10 03:36:00,,0822.2,5.01,0.00,28.1,27.2,00.0,37.2,29.9,15.4,-000.3,0015.24,0034.93,0012.24
2021-11-10 03:37:00,,0822.2,5.01,0.00,28.1,27.2,00.0,37.2,29.9,15.3,-000.1,0015.26,0037.92,0012.21
2021-11-10 03:38:00,,0822.2,5.01,0.00,28.1,27.2,00.0,37.2,29.8,15.4,-000.3,0015.33,0037.76,0012.22
2021-11-10 03:39:00,,0822.2,5.01,0.00,28.1,27.2,00.0,37.2,29.8,15.4,-000.5,0015.29,0037.94,0012.21
2021-11-10 03:40:00,,0822.3,5.00,0.00,28.1,27.2,00.0,37.2,29.8,15.4,-000.3,0015.27,0038.38,0012.22
2021-11-10 03:41:00,,0822.3,5.00,0.00,28.1,27.2,00.0,37.2,29.8,15.4,-000.6,0015.33,0038.31,0012.23
2021-11-10 03:42:00,,0822.4,4.99,0.00,28.1,27.2,00.0,37.1,29.8,15.4,-000.8,0015.32,0037.88,0012.21
2021-11-10 03:43:00,,0822.3,4.99,0.00,28.1,27.2,00.0,37.1,29.8,15.4,-000.6,0015.39,0037.92,0012.21
2021-11-10 03:44:00,,0822.3,5.01,0.00,28.0,27.1,00.0,37.1,29.7,15.4,0000.3,0015.30,0039.10,0012.22
2021-11-10 03:45:00,,0822.2,5.01,0.00,28.0,27.1,00.0,37.1,29.7,15.5,0000.2,0015.25,0039.39,0012.22
2021-11-10 03:46:00,,0822.3,5.00,0.00,28.0,27.1,00.0,37.1,29.8,15.5,-000.3,0015.28,0040.38,0012.26
2021-11-10 03:47:00,,0822.3,5.00,0.00,28.0,27.1,00.0,37.1,29.8,15.5,-000.4,0015.27,0039.94,0012.28
2021-11-10 03:48:00,,0822.4,5.00,0.00,28.0,27.1,00.0,37.1,29.8,15.4,-000.5,0015.34,0037.13,0012.33
2021-11-10 03:49:00,,0822.4,5.00,0.00,28.0,27.1,00.0,37.1,29.8,15.4,-000.3,0015.40,0037.37,0012.39
2021-11-10 03:50:00,,0822.4,5.00,0.00,28.0,27.1,00.0,37.1,29.7,15.5,-000.1,0015.46,0036.81,0012.45
2021-11-10 03:51:00,,0822.4,4.99,0.00,28.0,27.1,00.0,37.1,29.7,15.5,0000.1,0015.53,0035.68,0012.53
2021-11-10 03:52:00,,0822.4,5.00,0.00,27.9,27.0,00.0,37.1,29.6,15.5,0000.0,0015.64,0036.30,0012.59
2021-11-10 03:53:00,,0822.4,5.00,0.00,27.9,26.9,00.0,37.0,29.5,15.6,0000.3,0015.78,0037.36,0012.68
2021-11-10 03:54:00,,0822.4,5.01,0.00,27.8,26.9,00.0,37.0,29.5,15.6,0000.0,0015.82,0037.93,0012.75
2021-11-10 03:55:00,,0822.4,5.01,0.00,27.8,26.8,00.0,37.0,29.5,15.6,-000.5,0015.89,0037.58,0012.81
2021-11-10 03:56:00,,0822.4,5.00,0.00,27.8,26.8,00.0,37.0,29.5,15.7,-000.2,0016.05,0038.60,0012.87
2021-11-10 03:57:00,,0822.4,5.00,0.00,27.8,26.9,00.0,37.0,29.5,15.7,-000.0,0016.08,0038.71,0012.94
2021-11-10 03:58:00,,0822.4,4.99,0.00,27.8,26.9,00.0,36.9,29.5,15.7,-000.3,0016.21,0039.24,0013.01
2021-11-10 03:59:00,,0822.4,5.00,0.00,27.8,26.9,00.0,36.9,29.5,15.7,-000.6,0016.28,0039.77,0013.06
